GFSCGP_850_thetae_000.txt.gz
Theta_e
314 310 311 312 312 313 313 313 314 313 313 314 314 312 310 309 311 311 311 311 313 314 315 315 315 315 315 315 315 314 313 314 314 313 313 313 312 312 312 312 311 311 311 310
312 313 313 312 311 312 313 315 312 312 312 314 314 313 309 310 310 310 311 314 315 316 315 315 315 315 314 314 314 313 313 313 313 313 312 312 312 312 312 312 312 312 311 310
312 313 312 312 311 313 313 314 314 314 312 313 312 313 311 311 313 313 313 314 315 315 315 315 314 314 314 314 314 313 313 313 313 312 312 311 311 312 312 312 311 311 309 309
314 311 312 313 314 312 315 312 313 313 316 317 312 315 313 310 312 311 312 314 314 314 314 314 315 315 314 314 313 313 313 313 313 312 313 312 312 311 311 310 309 309 308 308
313 312 313 315 314 313 315 313 314 315 315 315 314 313 313 310 312 312 312 313 314 314 314 315 314 314 313 313 313 313 313 313 313 313 312 311 311 310 310 309 308 307 306 306
315 314 313 314 314 314 313 314 312 312 313 316 315 314 313 312 312 311 312 313 314 314 314 314 313 313 313 314 314 314 313 312 312 311 311 310 308 308 307 305 304 303 303 304
315 316 315 315 315 314 313 311 311 313 312 316 315 314 312 313 312 313 313 314 314 313 313 313 313 314 314 313 312 311 311 311 310 309 309 308 307 305 303 302 301 301 302 303
317 314 316 315 315 316 316 314 311 314 313 314 313 316 315 313 312 313 313 312 314 314 315 314 314 313 312 312 311 311 310 309 308 307 305 304 303 302 301 300 300 300 302 302
316 317 315 316 315 315 317 315 313 312 302 309 314 315 313 312 312 314 312 312 312 312 312 312 312 312 312 312 312 310 307 306 305 304 303 303 302 301 300 300 299 301 302 301
316 318 315 315 315 315 314 313 314 311 312 316 316 315 315 314 312 310 309 310 312 312 312 312 312 312 312 311 308 307 306 304 304 303 302 302 302 300 299 299 300 301 300 299
313 314 313 313 314 316 315 314 313 314 312 312 312 314 312 312 311 309 310 312 312 312 312 311 311 312 312 309 307 307 304 302 301 302 303 303 301 299 298 299 299 299 297 296
313 310 311 314 313 313 314 314 312 309 312 310 308 313 312 312 311 311 311 312 312 311 311 310 311 311 311 307 308 307 304 304 304 304 303 301 299 298 299 298 297 296 295 295
313 310 309 309 311 311 315 315 312 307 307 314 309 312 309 310 311 312 312 312 312 311 310 310 310 311 309 307 308 308 306 306 305 303 300 299 297 298 296 296 295 295 294 294
313 310 310 310 310 310 313 314 313 312 314 313 313 313 313 311 309 311 312 312 312 311 310 310 310 310 307 306 308 307 305 305 302 300 298 297 297 297 294 294 294 294 293 294
311 314 312 311 311 311 313 313 313 312 312 315 314 312 312 310 307 311 313 312 312 311 310 309 310 307 304 305 304 301 303 301 299 298 297 297 297 296 295 294 294 293 293 294
309 309 312 311 311 311 311 311 312 312 312 311 312 312 310 309 312 312 312 311 312 311 309 308 304 303 303 302 301 302 302 299 298 298 298 296 295 295 295 293 292 292 291 291
311 305 307 308 308 307 307 308 310 311 310 310 310 309 308 310 311 310 310 311 311 309 306 306 304 302 301 302 303 300 298 297 297 297 295 292 292 292 291 290 290 290 290 289
304 303 303 306 311 313 310 310 309 309 308 308 307 306 308 311 310 310 310 310 309 306 304 301 301 302 303 302 299 298 298 297 296 296 294 292 292 290 290 288 287 287 286 286
306 305 307 313 313 309 312 310 310 309 308 308 308 310 311 310 309 309 310 307 305 303 300 300 302 303 301 298 298 298 297 295 294 293 292 291 290 289 288 286 286 286 286 285
304 299 303 308 312 313 309 307 308 310 309 310 311 310 310 309 308 309 305 305 302 299 299 301 302 299 297 297 298 297 295 293 292 292 292 290 288 287 286 286 285 285 285 284
302 304 312 312 310 307 306 307 309 312 310 310 310 310 308 306 306 302 301 300 299 299 301 301 298 296 296 297 296 295 294 293 292 292 290 288 286 286 285 285 285 284 284 284
305 302 300 304 307 307 307 309 310 310 311 310 310 308 309 306 304 301 299 299 298 299 301 300 297 296 296 297 296 294 293 292 292 290 288 287 286 286 286 285 285 284 284 283
308 306 308 310 306 307 309 310 310 309 309 308 309 306 305 303 301 300 298 299 299 300 301 299 298 296 297 295 293 292 292 291 290 289 287 286 287 286 286 285 285 284 284 283
309 311 308 309 309 311 312 311 310 310 309 307 305 303 301 298 298 299 299 300 299 301 300 300 298 296 294 292 291 291 291 290 289 287 287 287 287 287 286 286 285 284 283 281
310 310 310 309 311 311 311 310 310 307 307 306 302 299 298 299 298 298 299 297 297 299 298 299 297 295 293 291 292 292 291 290 288 287 287 287 287 287 286 285 285 283 282 280
311 309 308 311 311 311 310 310 308 307 304 302 297 297 297 296 298 298 296 295 295 296 296 297 296 295 294 293 292 291 290 289 288 288 287 287 287 287 286 285 284 283 281 280

GFSCGP_850_thetae_003.txt.gz
Theta_e
312 315 314 313 312 312 313 313 315 314 313 316 315 315 314 311 312 311 311 312 312 316 316 316 315 315 316 320 319 314 313 314 314 313 312 312 312 312 312 311 311 311 311 311
314 314 312 311 311 312 313 314 313 314 313 316 316 316 313 312 312 311 313 313 314 315 315 315 315 315 315 315 315 314 313 313 312 312 311 311 311 311 312 312 311 311 311 310
314 312 311 312 313 315 314 314 314 315 314 314 314 317 316 313 312 313 314 314 315 315 315 315 315 314 314 314 314 313 313 312 312 312 312 312 312 312 312 311 311 311 309 308
312 311 313 314 314 313 316 312 314 315 317 320 313 320 317 313 313 313 313 314 314 314 314 314 314 314 313 313 313 312 312 313 313 312 312 312 311 310 309 308 306 306 305 304
313 313 314 316 314 313 317 313 315 315 317 317 318 318 318 314 315 313 312 312 313 313 313 313 313 313 312 312 312 313 313 312 312 311 311 310 309 308 306 305 304 303 301 300
314 314 313 314 313 314 314 315 314 314 316 321 317 317 318 317 314 314 313 312 313 313 312 313 312 313 313 313 313 312 311 311 311 310 308 307 306 305 303 302 301 300 299 299
316 316 315 314 316 316 316 315 319 323 323 323 315 316 316 315 312 312 312 312 313 313 314 312 313 313 312 312 312 312 311 310 309 309 307 305 303 302 301 300 298 298 298 298
319 318 316 315 315 316 317 316 320 318 321 320 315 318 317 314 313 312 311 311 312 312 312 313 313 312 312 312 311 311 310 309 310 308 306 303 301 300 299 298 298 298 298 299
319 318 315 315 314 315 317 319 314 315 306 319 317 317 314 313 313 313 310 311 312 312 312 312 312 311 311 312 312 311 310 308 305 301 301 301 302 301 299 298 298 298 299 300
316 319 314 315 314 314 316 314 318 318 320 319 318 317 318 315 315 312 311 312 312 312 312 311 311 311 311 311 311 308 307 305 303 303 304 304 302 300 298 298 298 298 299 298
313 315 314 313 316 317 317 317 315 316 317 321 320 318 315 315 314 314 312 312 312 312 312 311 310 310 310 311 309 307 307 308 305 305 305 302 300 298 297 297 297 297 297 296
313 313 314 315 313 313 314 315 313 316 314 316 315 316 312 313 313 312 312 311 312 312 312 311 310 310 310 310 309 306 308 306 305 304 301 299 298 297 297 297 296 296 296 293
313 313 313 311 313 312 316 315 311 311 312 316 318 316 311 311 312 311 312 311 313 312 312 312 310 310 310 309 307 306 302 303 302 300 298 298 297 297 297 295 295 294 294 294
313 312 312 313 311 312 314 314 313 315 317 316 316 316 315 314 313 312 310 312 311 311 312 311 310 310 309 305 304 302 301 302 301 298 297 297 298 296 295 295 294 293 293 293
313 316 313 312 313 312 313 314 314 315 315 316 316 315 314 313 312 310 311 310 310 310 311 310 308 306 304 302 302 302 303 301 298 296 297 297 296 295 296 294 293 291 290 289
309 313 312 312 310 310 311 312 312 313 314 314 314 315 312 311 309 311 310 310 310 309 309 306 304 302 302 301 302 302 299 297 297 296 296 295 294 292 291 290 289 288 287 287
312 311 311 313 309 310 312 309 312 312 312 312 313 312 308 310 311 311 310 309 308 306 304 303 303 300 300 303 302 298 297 298 296 294 294 292 291 290 290 289 288 286 286 285
306 308 308 314 312 315 313 309 310 311 311 310 309 309 309 310 310 309 307 306 305 304 302 300 299 300 303 301 297 297 298 297 295 293 292 292 291 289 288 287 286 285 285 285
307 308 310 313 314 312 313 311 310 311 311 309 311 310 310 311 310 308 305 305 305 303 300 299 300 302 300 297 296 297 297 296 294 292 292 292 290 288 286 286 286 285 285 285
305 303 311 311 314 315 312 308 308 309 313 310 310 311 311 310 310 311 304 303 301 299 299 299 301 300 298 297 296 297 296 295 293 292 292 290 288 286 287 286 286 285 285 284
306 306 310 312 312 312 308 307 308 314 314 310 309 310 308 308 305 304 303 300 299 299 299 300 301 300 299 297 297 296 296 294 294 291 291 289 287 287 286 286 286 285 285 284
309 309 307 306 309 311 306 308 313 311 310 309 308 307 305 305 303 301 299 299 299 298 297 300 301 300 299 297 295 293 290 291 291 291 290 288 287 286 287 287 286 286 285 284
311 310 311 310 311 307 307 309 309 309 309 308 308 306 305 302 299 299 298 298 298 296 295 295 298 298 298 296 293 290 290 291 291 290 289 287 286 286 287 287 286 285 284 283
308 307 310 310 311 309 310 310 309 309 308 306 305 303 299 298 298 297 296 297 297 296 294 295 296 297 297 294 291 291 292 291 291 289 287 287 287 287 287 287 285 284 283 281
311 310 310 309 311 310 310 310 309 308 306 304 300 297 297 296 296 296 296 297 295 294 294 294 295 296 297 295 293 293 292 291 290 289 288 287 287 287 287 286 284 283 282 280
310 311 312 312 310 310 309 308 308 306 302 297 297 295 294 294 293 295 294 293 293 293 293 292 294 295 295 293 293 291 290 290 289 289 288 287 287 287 286 284 283 282 281 279

GFSCGP_850_thetae_006.txt.gz
Theta_e
317 319 319 318 318 317 317 317 318 317 318 320 321 319 318 318 318 318 318 317 317 320 319 322 321 316 316 320 326 323 321 312 313 314 313 313 313 313 313 312 311 311 311 311
319 318 316 317 317 317 317 318 318 318 318 320 321 320 318 318 317 318 318 318 318 318 317 317 316 316 318 320 320 318 315 313 313 312 311 312 312 312 312 312 312 311 310 308
318 316 315 317 320 320 318 318 319 319 319 320 320 322 320 318 317 317 317 317 317 317 317 316 316 315 315 315 315 315 313 312 312 312 312 312 312 312 311 310 308 308 306 304
317 316 318 319 319 320 320 318 319 319 321 323 321 323 321 318 318 318 317 317 317 316 316 315 315 315 313 313 312 312 312 312 312 311 310 309 310 310 308 308 307 305 303 300
317 318 319 320 318 319 320 318 319 320 322 323 323 322 322 320 319 318 317 316 316 315 315 315 315 314 314 313 312 312 312 311 311 310 310 309 308 308 308 307 305 303 303 301
318 316 319 319 318 318 318 319 320 321 324 326 322 321 323 321 318 318 317 317 317 316 314 315 314 314 314 313 312 312 311 311 310 309 309 307 307 308 307 305 303 303 302 302
319 319 319 318 320 320 320 321 324 327 327 325 319 321 322 318 317 317 317 317 317 316 316 315 314 314 314 313 312 312 312 310 310 311 309 308 306 305 305 303 303 301 301 301
321 322 320 319 319 320 320 321 324 323 324 322 319 320 322 318 316 316 315 315 315 315 315 314 314 314 314 312 312 312 311 310 310 309 306 303 304 305 304 302 300 299 299 299
321 321 318 317 318 318 320 322 319 321 316 324 320 320 319 317 317 316 315 315 315 315 314 314 313 313 313 313 312 311 311 310 309 307 307 303 305 303 301 298 297 299 299 299
319 321 317 318 318 318 320 318 321 320 325 317 317 318 318 319 318 316 316 315 315 315 315 314 313 312 312 312 311 311 311 310 309 308 305 304 303 300 298 298 298 298 299 299
316 318 318 317 320 320 321 321 319 319 320 319 319 317 319 317 316 316 315 315 315 315 314 314 313 312 312 312 311 310 310 309 307 305 303 302 300 299 298 298 297 297 297 297
317 318 316 316 317 317 318 319 318 317 317 318 319 318 316 316 315 315 315 314 314 314 314 313 313 312 312 311 310 309 307 304 302 302 301 301 299 298 298 298 297 297 297 297
317 318 315 317 318 318 319 318 317 317 317 319 320 319 315 315 315 314 314 313 314 313 312 312 312 312 311 308 307 305 303 302 302 301 300 299 299 298 297 297 296 296 295 295
315 318 316 314 314 315 314 314 315 316 319 318 318 317 316 315 315 314 313 314 313 312 312 312 311 310 307 308 304 302 303 302 300 299 299 298 298 297 294 294 294 294 293 293
318 316 317 316 315 315 315 315 315 315 316 318 317 316 316 315 314 313 313 313 313 312 311 310 309 307 305 304 303 303 302 300 298 299 297 296 295 294 294 293 292 291 290 289
316 317 315 315 314 314 315 315 315 315 316 316 316 316 313 312 313 313 312 312 311 311 308 306 305 302 302 302 303 302 300 299 299 297 295 294 294 293 292 291 290 289 288 288
318 318 317 320 313 314 318 316 315 315 315 315 315 314 313 314 313 313 312 311 309 307 305 303 302 301 302 303 303 300 299 298 298 296 294 294 294 291 290 289 288 288 288 287
313 316 314 318 316 321 315 313 313 314 314 314 313 313 313 313 312 312 309 308 304 303 302 301 301 301 302 303 301 299 298 297 296 295 294 294 292 290 289 288 288 287 287 287
313 316 315 316 315 315 314 313 313 313 314 313 314 313 313 312 311 310 306 305 304 302 301 301 301 300 301 302 300 299 298 296 295 295 294 293 291 290 288 288 287 287 287 286
310 311 317 314 316 317 315 312 310 312 315 313 312 312 310 311 313 309 305 304 301 301 301 300 298 299 301 302 299 299 298 297 295 293 293 292 290 289 288 288 287 287 287 286
312 311 314 314 316 315 313 310 310 316 317 312 310 309 309 309 307 305 303 301 300 300 299 298 297 297 299 299 299 299 297 294 293 293 292 291 290 288 288 287 287 287 286 286
315 317 315 313 313 315 310 311 314 314 311 309 308 308 307 306 304 302 300 299 298 299 298 297 296 296 297 297 298 297 295 294 293 293 292 291 289 288 288 288 287 287 286 285
315 314 314 313 316 313 312 311 311 310 309 309 308 306 304 303 301 299 298 298 298 298 297 296 296 295 295 296 297 296 294 294 293 292 291 290 289 288 288 288 287 286 286 284
314 312 314 313 313 313 313 312 311 310 308 307 305 303 301 300 298 298 298 297 297 296 295 295 294 294 294 295 296 295 294 293 292 291 290 290 289 288 288 287 287 286 285 283
314 313 313 314 313 313 312 311 309 308 307 304 303 301 299 298 297 297 296 295 295 294 294 294 293 293 293 293 294 293 292 290 290 289 289 289 288 288 288 287 285 284 283 281
313 314 314 314 312 312 310 308 306 307 304 302 300 298 297 297 297 295 294 294 294 293 293 293 293 293 292 292 292 291 289 289 288 288 288 288 288 288 286 286 285 284 282 280

GFSCGP_850_thetae_009.txt.gz
Theta_e
320 322 322 321 320 319 319 319 320 320 320 321 322 321 321 321 322 322 321 321 321 320 326 326 323 322 324 327 327 327 323 321 319 318 317 316 316 316 316 315 315 314 313 310
319 321 319 320 320 320 320 320 320 320 320 321 323 322 321 321 321 321 321 321 322 322 321 320 321 321 322 325 325 322 319 317 316 316 316 315 314 315 315 315 313 312 311 309
321 320 318 320 321 322 321 321 322 322 321 321 322 323 321 321 320 320 320 320 320 320 319 319 319 320 320 320 319 318 317 316 315 314 314 314 314 314 313 313 312 311 310 308
320 319 320 321 322 321 323 320 321 321 321 324 323 325 323 321 321 320 320 319 319 318 318 318 319 319 319 318 317 316 315 315 313 312 313 313 313 313 312 312 311 309 307 306
321 321 322 322 321 321 323 321 321 322 323 323 323 322 324 322 321 321 320 319 318 318 319 318 318 317 317 317 317 316 315 314 314 313 312 312 313 313 312 311 308 306 306 305
321 319 321 321 320 320 321 322 323 324 325 325 325 323 325 324 322 320 319 319 319 319 318 318 317 317 317 317 316 315 315 314 313 313 313 313 312 311 309 308 307 305 304 303
322 322 321 320 323 323 322 324 327 329 328 328 323 321 324 321 320 320 320 319 319 319 318 318 317 317 317 316 316 315 314 314 313 313 311 310 309 309 308 307 305 304 302 302
323 325 322 320 322 322 322 324 328 325 326 324 322 321 324 321 319 318 318 318 318 318 317 317 316 316 316 316 315 316 315 314 313 312 311 310 309 308 306 305 303 301 301 301
323 323 320 320 321 321 323 323 321 324 322 325 321 322 322 320 319 318 318 318 318 317 316 316 316 316 315 315 315 314 314 313 313 312 311 309 307 305 304 302 301 300 300 300
320 324 319 320 320 321 322 320 325 322 325 319 319 318 322 321 320 319 318 317 317 317 316 316 315 315 314 314 314 313 313 312 311 311 308 306 305 304 301 300 300 299 299 299
318 320 320 319 321 321 322 323 321 319 320 321 320 319 319 318 318 317 316 316 316 316 316 315 315 314 314 313 313 313 312 311 309 307 305 304 303 301 300 299 299 299 298 298
318 320 319 318 319 320 320 321 320 320 318 319 320 319 318 318 316 316 316 316 315 315 315 314 314 314 313 313 312 311 309 307 306 304 303 302 301 300 300 299 297 296 297 297
319 321 320 319 321 320 319 319 318 317 317 318 324 320 318 317 317 316 315 315 315 314 314 313 313 313 312 311 309 308 306 305 304 303 302 301 300 299 299 297 296 296 295 295
317 319 318 318 317 316 316 316 316 317 319 319 319 318 318 317 317 315 314 315 314 313 313 313 311 310 309 308 306 305 304 304 303 302 300 299 298 297 296 296 295 294 293 292
318 318 318 317 316 315 315 316 316 316 316 318 318 318 317 317 315 315 314 314 313 312 313 311 309 308 306 304 303 303 304 303 301 301 299 298 297 296 295 294 293 292 291 290
318 320 318 317 316 315 315 315 315 316 316 316 317 317 316 315 314 314 313 313 313 312 310 308 306 304 303 303 303 303 303 301 300 300 298 297 296 295 294 293 292 290 290 289
319 319 318 320 318 317 320 318 315 316 315 316 317 316 315 315 314 313 312 313 311 308 307 307 305 303 303 302 302 303 302 301 300 299 298 297 296 295 293 292 290 290 289 289
320 318 318 320 317 323 318 316 315 315 315 315 315 315 315 314 313 312 311 309 308 306 306 304 304 302 301 300 301 301 302 300 300 298 297 296 295 294 292 291 290 289 289 289
317 319 318 318 318 316 316 315 315 315 315 315 316 316 314 313 312 311 309 308 306 305 304 303 302 300 299 299 300 301 300 299 299 299 297 295 294 294 292 290 289 289 289 289
315 317 320 318 317 319 317 315 313 314 317 315 315 313 311 311 313 311 307 306 304 303 302 301 300 299 298 298 298 298 298 298 298 297 295 294 293 293 291 290 289 289 289 288
315 314 319 316 318 316 315 313 313 316 318 315 312 311 310 310 308 307 305 303 302 300 300 300 299 298 297 297 296 296 296 297 297 296 294 294 294 292 290 289 289 289 289 288
317 318 315 315 317 316 313 313 316 315 313 313 311 310 309 307 306 304 302 300 300 299 299 298 297 296 296 295 295 295 295 296 296 295 295 294 293 291 290 289 289 289 288 288
317 316 317 317 317 314 313 314 314 313 312 311 309 308 307 304 303 301 300 299 299 298 297 296 296 295 294 294 294 293 295 296 295 294 293 292 292 291 290 289 289 288 287 287
315 314 317 316 314 313 313 313 313 312 310 308 307 307 304 302 300 299 299 298 297 296 295 295 294 294 294 294 294 293 294 294 293 292 292 291 290 290 289 289 288 287 286 285
316 315 316 317 315 313 313 313 311 309 308 307 306 303 302 300 299 299 298 296 296 295 295 294 294 294 294 294 293 293 293 291 291 290 290 289 289 289 289 288 287 286 285 284
314 316 318 318 314 314 313 311 309 309 308 305 302 301 300 299 298 297 296 295 295 295 294 294 294 294 294 294 293 292 291 290 289 289 289 289 289 288 288 287 287 286 285 284

GFSCGP_850_thetae_012.txt.gz
Theta_e
321 322 322 321 320 320 320 320 320 321 320 320 320 322 322 322 322 322 322 322 322 325 326 327 325 323 325 326 327 327 327 323 322 321 320 317 317 316 316 316 315 314 313 312
319 321 320 320 320 320 320 320 321 321 320 319 322 321 322 321 322 322 322 322 324 323 322 322 323 324 326 326 325 321 320 318 317 317 316 316 315 315 315 315 314 312 312 311
322 320 319 320 321 321 322 321 323 322 322 321 321 323 321 321 321 321 321 321 321 321 321 321 321 321 321 321 319 319 318 318 316 315 315 315 314 314 314 314 313 312 312 312
321 320 320 321 322 321 322 322 321 321 321 322 322 323 322 321 321 321 320 320 319 319 319 320 321 320 319 318 317 317 316 315 314 313 313 313 313 314 314 313 313 312 308 306
321 321 322 323 322 320 323 321 321 321 322 322 323 324 324 322 321 321 320 320 319 319 319 319 319 319 319 318 317 317 316 315 315 314 314 314 313 313 311 309 309 308 306 306
321 320 321 322 321 320 322 323 323 323 324 330 323 324 325 323 322 321 320 320 320 319 319 318 318 318 318 318 317 316 315 315 315 314 314 312 310 310 309 309 307 306 306 302
323 322 322 320 323 323 322 324 331 334 334 333 325 322 325 322 321 321 321 320 320 319 319 319 318 318 318 317 317 316 316 316 315 314 313 312 311 310 309 307 306 304 301 301
324 325 322 321 322 322 323 323 333 328 331 328 322 321 323 321 320 319 319 319 319 319 318 317 317 316 316 316 316 316 316 315 314 313 313 312 310 308 306 305 304 301 300 300
324 324 321 320 320 320 323 323 320 325 323 327 320 324 322 320 320 319 318 318 318 318 318 317 317 316 316 315 315 314 314 314 313 312 311 310 308 306 305 303 300 299 300 299
319 324 319 319 320 322 321 320 324 328 327 322 319 319 323 321 320 320 318 317 317 317 316 316 316 315 315 315 314 314 313 313 312 310 309 307 306 304 302 301 300 300 300 298
319 321 321 320 321 321 322 322 322 320 323 324 322 319 318 319 319 318 317 317 316 316 315 315 315 315 314 314 313 313 311 311 310 307 306 304 303 302 301 300 300 299 297 295
317 320 325 319 319 319 319 320 320 326 321 325 323 319 319 318 317 318 316 316 316 316 315 314 314 313 313 311 311 311 310 308 306 305 304 303 302 300 300 299 299 297 296 295
319 323 326 321 322 320 318 319 318 319 321 319 323 320 318 318 317 317 315 315 315 314 314 313 313 312 311 310 309 309 307 305 305 304 302 302 300 299 298 297 296 295 295 293
318 319 319 321 318 317 316 316 316 317 323 322 321 318 318 318 317 316 315 315 314 313 313 313 312 310 309 307 305 305 304 304 305 303 302 301 300 298 297 296 296 294 293 292
319 320 319 317 316 316 316 316 316 316 317 318 318 316 317 317 316 315 314 314 314 313 312 310 309 308 306 305 304 304 303 303 304 303 301 300 299 298 297 296 295 293 292 290
319 322 320 319 317 316 316 315 315 316 316 316 317 317 317 316 315 314 314 313 313 312 309 308 308 306 305 304 303 302 301 302 303 302 301 300 299 297 296 295 294 292 291 290
321 323 321 322 317 318 323 320 316 316 316 316 318 317 316 316 315 314 313 313 311 309 307 306 305 305 303 302 300 300 300 301 302 301 301 300 299 297 296 295 293 292 290 289
320 320 319 320 318 323 318 316 316 316 316 315 315 316 316 314 313 312 311 310 308 307 306 305 304 302 301 300 299 299 298 298 298 298 299 299 297 296 295 294 293 291 290 289
319 320 316 321 318 316 317 316 315 315 315 315 317 316 314 312 312 311 309 307 306 305 304 302 301 301 300 299 298 297 296 296 297 296 298 298 296 295 294 293 292 290 289 289
317 320 322 316 318 318 318 316 314 314 317 316 315 314 313 311 313 310 307 305 304 302 301 300 300 299 298 297 296 295 295 295 295 296 296 296 295 294 294 293 290 289 289 289
314 316 317 318 316 317 315 314 314 316 318 315 314 312 311 311 309 306 305 303 301 300 300 299 298 297 296 296 295 295 294 294 295 295 295 295 295 294 293 291 290 289 289 289
315 318 314 316 317 317 314 314 315 317 315 314 312 311 310 309 307 304 303 301 300 299 298 297 296 296 295 295 295 294 294 294 294 294 293 293 293 293 292 290 290 289 289 288
319 320 321 318 318 316 315 314 314 314 314 312 310 309 307 307 304 303 301 300 299 298 297 296 295 295 295 295 295 295 294 294 293 292 292 292 292 291 290 290 289 288 288 287
315 314 321 319 316 315 314 314 314 313 312 310 308 307 307 304 302 301 300 299 298 297 296 295 295 295 295 294 295 294 293 293 292 291 290 290 290 290 289 289 288 288 287 286
317 316 317 317 316 315 315 314 312 310 310 308 307 305 303 302 301 300 298 297 297 296 296 295 295 294 294 294 294 293 292 291 290 290 289 289 290 290 289 288 288 287 286 286
315 315 318 318 316 316 315 311 310 309 309 308 304 303 301 300 299 297 297 296 296 295 294 294 294 294 294 294 293 292 291 290 289 288 288 288 288 288 288 288 287 286 285 285

GFSCGP_850_thetae_015.txt.gz
Theta_e
320 317 317 318 319 318 318 318 318 317 318 318 318 317 318 320 320 320 323 324 323 323 323 323 326 325 326 327 328 328 323 322 322 322 322 320 318 316 316 315 315 314 314 313
318 318 318 319 319 319 319 320 320 318 318 317 317 319 317 319 319 321 321 321 322 323 323 323 323 326 325 324 324 323 323 322 319 318 317 317 316 315 315 314 314 313 313 313
318 318 319 320 320 320 320 321 320 320 318 318 319 319 318 318 320 320 320 321 320 320 321 321 322 322 321 321 321 321 319 318 317 316 315 315 314 313 313 314 314 313 312 311
319 319 320 320 320 319 322 321 321 320 319 318 316 319 318 318 318 319 319 319 320 320 321 320 320 318 318 318 317 316 315 315 314 314 313 313 314 314 313 313 311 309 308 307
320 320 321 321 320 319 322 321 320 320 319 320 319 319 318 319 319 318 318 319 319 319 319 319 319 318 317 317 316 315 315 315 315 314 314 314 313 311 309 309 309 308 308 307
319 320 319 319 320 319 319 321 321 321 321 321 322 321 324 321 320 318 319 319 319 319 319 318 318 318 318 317 316 316 316 316 315 314 314 312 311 311 310 310 310 308 306 304
320 320 320 320 321 321 319 322 321 323 321 322 325 323 323 320 318 319 319 319 319 319 318 318 318 318 317 317 316 316 316 316 316 314 313 312 312 311 311 310 308 305 301 299
322 322 319 319 319 320 321 321 317 326 322 321 317 322 320 317 318 319 319 319 319 318 318 317 317 316 316 316 315 315 315 314 314 314 313 311 310 309 308 306 303 300 299 299
324 321 319 318 318 319 322 318 318 321 320 316 319 320 318 317 318 318 318 318 318 318 317 317 315 315 315 315 314 314 314 314 314 313 312 310 307 306 304 302 300 300 300 299
318 321 318 318 319 320 318 318 319 317 320 321 318 322 323 320 320 319 316 316 316 315 315 315 314 314 314 314 313 313 312 312 311 309 308 307 305 303 302 301 300 300 299 298
317 321 319 318 318 318 319 320 319 318 315 317 316 316 317 319 319 317 315 315 315 315 314 314 313 313 312 312 311 310 311 310 308 307 306 305 304 302 301 301 300 300 297 294
316 317 315 319 317 318 318 319 319 313 318 313 313 314 315 315 316 316 315 315 315 314 313 313 313 312 312 311 309 308 306 305 305 305 304 304 302 302 301 300 299 298 295 294
317 317 316 320 320 318 317 317 318 318 311 314 308 312 316 318 317 317 315 314 313 313 313 312 312 310 309 308 306 304 304 304 303 303 304 303 302 301 300 298 298 296 296 294
318 318 315 316 316 314 315 315 314 316 312 314 314 316 315 316 316 314 314 313 313 312 311 311 307 307 307 305 304 304 303 302 301 302 303 302 302 301 299 297 296 295 294 293
316 318 317 316 315 315 315 314 314 314 314 313 313 316 316 313 313 313 313 313 312 311 310 307 306 306 304 304 303 301 300 300 299 300 299 301 301 300 299 299 297 295 293 291
318 316 316 316 316 315 315 314 314 313 314 314 315 315 315 314 313 313 312 311 309 308 307 305 305 305 304 302 301 300 299 298 297 296 296 297 299 299 298 298 296 294 292 290
318 311 310 315 313 313 311 316 315 315 315 314 313 315 313 312 311 311 310 309 307 306 305 304 303 303 301 300 299 298 297 296 296 295 295 297 296 296 296 296 294 294 292 290
313 312 308 307 306 308 317 314 314 314 314 313 315 313 312 311 311 310 309 307 305 304 303 302 301 300 299 298 297 297 296 295 295 294 294 295 295 294 295 295 294 292 291 289
317 309 305 310 310 311 316 315 314 314 313 315 314 313 312 311 310 308 306 305 303 302 301 300 299 298 297 296 296 295 295 295 294 294 294 294 293 294 295 294 293 293 289 289
314 308 307 305 306 305 312 314 314 313 310 315 314 312 311 310 304 307 307 304 302 301 300 299 297 296 296 295 295 294 294 294 294 294 294 293 292 293 293 292 291 290 289 289
306 306 305 312 302 308 312 314 313 312 310 314 313 311 310 308 309 308 304 302 301 300 299 297 296 296 295 295 295 295 295 294 294 294 293 292 291 292 292 291 290 290 289 288
307 306 310 312 310 309 313 313 310 311 314 314 311 310 310 308 307 306 302 301 300 299 297 296 296 295 295 295 295 295 294 294 294 293 292 291 290 291 291 290 289 289 288 288
313 311 310 309 308 310 314 314 313 314 314 312 311 309 307 306 307 302 301 300 298 297 296 296 296 295 295 294 294 294 294 294 293 292 291 290 290 289 289 289 289 288 288 287
313 314 309 312 314 315 315 314 314 313 313 311 309 306 306 306 302 301 299 297 297 296 296 295 294 294 294 294 294 294 294 293 292 290 290 289 289 289 289 289 288 287 287 287
311 314 313 310 314 314 314 314 313 311 310 310 307 307 303 302 300 298 297 296 295 295 294 294 294 294 294 294 294 293 292 291 291 290 289 288 288 288 287 288 287 287 286 285
315 312 310 309 314 314 313 312 311 310 309 308 306 303 301 300 297 296 296 295 294 294 294 293 293 293 293 293 293 292 292 291 291 290 288 287 286 287 288 288 287 286 285 284

GFSCGP_850_thetae_018.txt.gz
Theta_e
319 316 315 316 315 316 316 316 316 316 317 317 315 316 316 317 320 320 322 322 323 322 325 326 327 327 328 331 329 326 324 324 323 323 320 320 317 316 315 314 313 313 313 313
315 316 317 317 318 318 319 317 317 317 317 315 314 316 315 317 318 320 321 322 322 322 322 323 323 325 327 326 325 323 317 321 321 318 319 317 315 314 314 314 313 313 313 313
316 317 318 319 317 319 319 318 319 319 317 316 316 316 317 317 318 319 320 321 321 321 321 320 320 320 319 318 318 318 317 317 316 316 315 314 313 313 313 313 313 312 311 309
317 318 319 319 319 318 321 320 319 319 316 314 314 317 317 317 317 317 318 320 320 320 319 318 318 317 316 316 315 314 314 314 315 315 314 314 313 313 313 313 312 310 310 309
319 319 318 319 319 318 321 319 319 319 317 318 318 316 317 317 318 317 317 320 320 319 318 318 317 317 317 317 316 315 315 315 314 315 315 314 313 313 312 311 311 310 309 308
318 319 318 319 319 319 318 320 320 319 318 319 321 319 318 317 317 317 316 318 318 318 318 318 318 318 317 316 316 316 316 316 316 315 314 313 312 312 311 310 309 307 307 307
319 319 318 319 320 318 317 319 319 321 319 320 323 322 320 318 318 318 317 318 318 318 318 318 318 317 317 316 316 316 316 315 315 314 313 313 312 311 310 309 308 307 304 300
320 320 318 317 318 319 320 318 316 325 319 318 318 321 318 317 318 319 319 319 318 318 318 318 318 318 316 315 314 314 314 314 314 313 312 311 309 308 306 304 304 302 301 300
320 319 318 317 317 318 320 316 317 317 315 314 318 318 317 317 316 317 318 318 317 316 315 315 314 314 314 314 314 313 312 311 311 310 310 309 306 304 304 303 302 301 300 300
318 318 317 317 319 318 315 316 318 313 317 319 316 321 319 319 318 314 314 315 315 314 314 314 313 313 312 311 310 310 309 309 308 307 306 304 304 304 303 302 301 301 300 299
318 316 317 319 316 317 316 317 317 315 313 315 314 314 313 318 317 313 313 314 314 314 313 312 312 311 311 309 308 306 305 304 304 304 303 302 303 304 303 302 300 300 298 296
315 314 313 319 316 317 317 318 315 312 316 311 310 313 313 313 313 315 314 313 313 312 311 311 310 309 307 305 304 303 304 303 302 301 302 303 303 302 302 301 301 300 298 296
315 314 314 318 317 315 316 316 317 313 308 313 307 309 313 315 314 314 313 312 312 311 311 311 309 305 303 304 304 304 303 302 301 300 302 299 297 299 300 300 300 296 295 297
317 316 314 316 316 313 314 314 315 314 310 312 311 313 312 313 312 312 311 311 311 311 310 307 303 303 304 304 303 302 300 300 300 299 298 297 296 297 300 299 298 297 297 295
314 316 316 314 313 314 313 313 313 313 312 313 312 313 314 312 311 312 311 311 311 309 306 303 303 304 304 302 301 300 299 299 298 297 296 295 294 295 295 294 294 294 295 293
315 313 313 314 314 314 314 314 314 313 313 313 313 315 312 312 312 311 311 310 308 306 303 302 303 302 301 300 299 299 298 297 296 295 294 294 294 294 293 292 294 295 293 291
314 309 307 310 310 312 309 314 314 314 312 313 312 312 311 310 310 310 309 308 306 303 302 302 301 300 299 298 297 297 296 295 294 294 294 294 294 293 292 292 294 294 294 291
310 309 302 304 302 305 314 313 313 313 314 312 312 310 310 310 310 309 308 306 304 302 301 300 299 298 297 296 296 295 295 294 294 294 294 294 294 293 292 292 293 293 290 290
311 303 304 302 307 306 314 313 313 312 312 312 312 311 311 309 307 306 306 304 303 301 300 299 298 297 296 295 295 295 295 295 294 294 294 294 293 292 291 292 291 291 290 289
310 303 303 306 302 302 306 313 313 312 310 313 312 311 311 309 304 305 306 304 302 301 299 298 297 296 296 295 295 295 294 295 294 294 294 293 292 291 291 292 291 290 290 289
305 301 303 297 299 305 306 312 313 311 308 314 313 312 310 307 308 308 305 301 300 300 298 297 296 296 295 295 295 294 294 294 294 293 293 291 290 290 291 291 290 289 289 288
307 306 305 304 300 308 309 311 310 309 314 314 313 312 310 309 307 306 302 300 299 298 297 296 296 295 295 294 294 294 294 293 293 293 291 290 289 290 289 289 289 288 288 287
311 307 307 308 309 308 312 313 313 313 314 314 312 310 309 306 306 303 301 299 298 297 296 295 295 294 294 294 293 294 293 293 292 291 291 290 289 289 289 289 289 288 287 287
310 311 308 310 311 311 313 313 313 313 314 312 311 307 306 306 303 300 298 297 297 296 295 295 294 293 293 292 292 293 293 293 291 291 291 290 288 288 288 288 287 287 287 286
309 312 312 308 311 314 314 314 314 313 312 310 309 308 306 304 299 298 297 296 296 295 294 293 292 291 291 291 291 291 291 291 291 291 291 289 287 286 286 287 287 287 286 285
313 310 309 309 312 312 312 313 313 312 311 310 308 303 300 301 298 297 296 296 295 294 293 291 290 290 290 290 290 290 291 290 290 291 290 289 287 286 286 286 286 286 285 284

GFSCGP_850_thetae_021.txt.gz
Theta_e
317 315 315 314 315 315 316 315 315 315 315 313 313 313 313 317 319 321 321 323 325 326 325 326 327 327 327 329 329 327 326 324 324 324 323 319 317 316 315 314 314 314 313 313
314 316 316 316 317 317 316 315 316 316 314 313 315 314 315 317 319 320 319 320 324 326 328 328 329 331 330 328 325 320 322 324 324 322 317 318 318 315 314 314 314 313 312 311
315 316 317 316 316 319 318 317 317 318 314 314 315 316 315 316 318 319 319 319 321 322 323 323 323 324 321 320 318 317 317 317 318 317 317 315 314 313 312 312 312 312 311 309
316 317 317 317 317 317 320 319 318 318 313 317 314 317 316 316 316 317 318 319 318 319 319 319 319 318 316 315 315 314 314 314 313 313 313 313 313 312 312 312 312 310 309 309
319 318 317 317 318 318 320 318 317 317 315 315 316 315 315 316 318 317 317 319 318 318 317 317 316 317 316 316 315 315 315 315 315 315 315 314 314 313 312 311 309 308 308 308
317 318 317 318 318 317 317 319 318 317 316 317 320 316 316 316 317 316 317 318 318 318 317 317 317 317 316 316 315 315 315 315 315 315 314 313 312 311 310 309 309 307 304 301
317 317 316 318 320 317 317 318 318 320 318 319 318 319 317 316 315 316 316 318 318 318 317 317 317 317 316 316 316 316 315 314 313 313 313 312 311 309 305 302 302 302 302 301
318 319 317 315 317 318 317 317 317 325 319 317 317 320 318 316 317 317 317 316 316 316 317 317 317 317 316 315 314 313 313 312 311 311 310 309 305 304 302 302 303 302 302 301
318 318 317 316 316 318 318 315 315 315 312 314 316 318 316 316 315 316 316 316 316 316 316 316 316 315 314 313 312 310 309 308 307 306 305 303 302 302 302 303 303 302 301 300
317 317 316 316 317 316 315 315 316 312 316 319 316 318 317 316 316 315 313 313 314 314 313 313 313 313 312 311 309 306 304 303 303 303 302 302 303 304 303 302 302 301 300 299
317 313 314 317 315 316 316 316 314 313 311 314 313 316 312 315 314 312 311 313 312 312 311 311 311 310 309 307 304 303 303 303 302 302 301 302 303 300 298 298 300 300 299 299
315 312 313 317 314 315 316 317 313 310 314 309 309 312 311 314 312 312 313 313 313 312 311 310 310 308 304 304 303 303 303 302 301 301 300 300 299 296 294 298 300 300 297 297
314 313 313 316 316 313 317 315 313 310 307 312 307 310 312 313 312 312 312 311 311 311 310 308 305 304 303 303 303 302 302 301 300 299 298 297 296 295 293 293 293 293 294 295
315 314 312 314 314 313 313 313 314 312 309 311 309 311 312 311 310 310 310 311 310 309 307 304 303 303 303 303 302 301 300 299 299 298 297 296 294 293 293 293 293 292 293 295
312 314 314 312 312 312 313 313 312 313 312 312 311 311 311 311 309 310 311 310 309 308 306 303 303 303 302 301 301 300 299 298 297 296 295 294 294 294 294 294 293 291 294 294
312 311 311 314 312 312 313 310 310 310 310 311 311 313 311 311 311 311 310 310 309 307 304 302 302 301 300 300 299 298 297 296 295 295 294 294 294 294 294 293 291 292 292 292
311 308 305 306 308 310 305 310 313 312 312 311 311 311 310 309 310 310 310 309 308 305 302 302 301 299 298 298 297 296 295 295 295 294 294 294 294 293 293 291 291 291 292 293
309 305 300 303 301 303 308 310 311 311 312 312 311 310 310 310 311 310 309 309 307 303 301 300 299 298 297 296 295 295 295 294 294 294 294 293 293 293 292 291 291 291 291 290
309 302 303 302 304 305 310 312 311 312 310 310 310 309 310 310 309 308 309 307 304 302 300 299 298 297 296 295 295 295 295 294 294 294 293 293 292 291 290 291 291 290 290 289
306 301 302 303 300 300 305 311 312 310 310 311 311 309 309 308 304 304 308 305 303 301 300 299 297 296 296 295 295 294 294 294 293 293 293 292 291 290 289 290 291 290 289 289
305 299 302 294 299 304 304 311 311 311 307 313 313 312 309 306 308 309 307 304 301 300 298 297 297 296 295 295 294 294 293 293 293 293 292 291 290 290 289 289 289 289 289 288
308 308 305 303 301 307 307 310 310 310 310 313 313 313 312 310 309 308 305 301 300 298 297 297 296 295 294 293 293 292 292 292 292 292 291 291 290 289 289 289 289 288 288 287
309 306 307 307 308 307 309 311 312 312 312 313 314 314 312 310 307 306 301 300 298 297 297 296 295 293 293 291 291 291 291 291 291 291 291 291 290 288 288 288 288 287 287 286
309 308 306 308 309 309 310 312 312 312 312 313 314 313 310 307 306 305 300 298 297 296 295 294 293 292 290 290 290 290 290 290 290 290 291 291 290 288 287 287 287 287 287 286
308 309 309 306 308 311 313 313 312 313 313 313 312 311 308 308 307 301 298 297 296 295 294 293 291 290 290 290 290 290 290 289 290 289 289 290 289 288 286 286 286 286 286 285
310 309 306 308 311 312 312 313 313 313 313 312 310 308 307 306 300 298 296 296 294 293 292 291 290 290 290 290 290 290 290 289 289 289 289 289 289 288 287 286 286 285 285 284

GFSCGP_850_thetae_024.txt.gz
Theta_e
316 313 313 314 313 312 313 314 314 313 313 313 314 315 315 317 319 319 320 322 323 324 324 325 326 325 325 326 328 326 324 325 324 323 321 318 317 319 319 315 314 314 313 313
314 314 315 316 315 314 314 314 315 315 312 314 316 315 313 316 318 318 320 321 323 325 327 329 328 328 328 328 327 324 323 324 321 321 320 319 318 314 313 312 312 312 312 312
314 315 316 316 316 317 317 316 317 316 315 313 315 316 315 315 318 319 322 325 327 326 326 327 326 323 322 319 318 318 319 320 318 316 314 313 313 312 312 312 312 312 312 311
317 316 316 315 316 316 319 318 316 315 314 317 313 319 317 316 317 317 318 322 322 321 323 322 319 316 316 315 314 314 314 314 314 314 314 314 314 314 313 313 312 311 309 308
318 317 316 316 317 317 319 316 316 315 314 314 315 317 314 316 319 317 317 318 319 320 319 316 316 315 315 314 314 315 315 315 315 315 315 314 314 313 312 311 310 308 303 303
316 316 316 317 316 316 316 317 315 315 314 316 318 315 314 316 317 316 316 317 317 316 316 316 316 315 315 315 315 315 315 315 315 314 314 313 312 311 309 305 302 302 301 300
316 316 315 316 318 316 316 316 317 319 317 318 316 316 314 314 314 316 316 318 317 316 316 316 316 316 315 315 315 315 315 314 313 312 311 310 308 305 303 301 301 301 301 300
316 316 315 314 317 317 316 317 316 323 319 317 316 320 317 313 315 318 318 317 317 316 316 316 316 316 316 316 315 314 313 310 309 307 306 304 302 302 303 303 303 302 301 301
317 318 316 315 315 317 317 314 314 315 312 313 315 317 316 314 313 315 317 317 317 317 316 316 316 315 314 313 312 310 308 305 303 303 302 302 302 303 303 302 301 299 300 300
316 316 315 315 316 315 316 313 315 311 315 317 315 316 316 316 315 313 313 314 314 315 314 314 313 313 312 311 310 307 303 303 302 300 301 301 300 301 301 297 296 295 299 299
314 313 313 315 315 316 315 315 312 312 310 312 311 314 311 316 315 314 312 313 313 313 313 312 311 310 310 309 306 304 303 301 300 300 300 300 300 298 296 294 293 294 295 293
313 311 314 315 314 314 314 315 311 309 312 308 308 310 310 310 313 313 312 313 312 312 311 310 310 310 307 304 305 303 302 301 301 300 299 298 296 295 293 293 293 293 293 292
312 312 313 314 312 312 316 314 310 308 307 312 307 309 311 310 311 312 312 311 310 310 310 310 308 305 303 303 303 302 301 300 300 299 297 296 295 293 293 293 293 293 292 291
313 311 311 312 312 311 312 314 312 311 308 309 309 310 312 311 310 310 310 310 310 310 308 306 304 303 303 303 302 301 300 299 298 296 295 294 294 293 294 293 293 292 291 291
310 313 312 312 311 312 312 311 312 312 310 311 310 309 309 310 309 310 311 310 309 309 308 305 303 303 303 302 301 300 299 297 296 295 294 294 294 294 293 293 292 291 290 292
310 310 310 314 311 310 312 309 308 309 310 310 310 309 307 311 311 310 310 309 309 309 307 303 303 302 301 300 299 298 297 295 295 294 294 294 294 293 292 292 291 290 291 291
309 307 305 305 306 306 306 308 309 310 309 308 310 309 309 309 309 309 309 309 310 309 306 303 302 301 300 299 297 296 295 295 294 294 293 294 293 292 291 291 290 290 291 291
307 304 299 302 301 303 308 308 309 310 310 308 310 309 309 310 310 311 311 311 310 308 305 302 301 300 298 297 296 295 295 294 294 293 293 293 292 291 290 290 289 291 290 290
306 302 302 302 303 305 308 308 310 311 310 309 309 309 309 310 310 310 311 310 309 307 303 301 300 298 297 296 295 295 294 294 293 293 292 292 291 290 290 290 289 290 290 290
304 300 302 299 301 301 305 308 310 310 310 309 310 308 308 308 306 309 311 310 308 304 302 301 298 297 296 295 295 294 293 293 292 292 292 291 291 290 290 290 289 289 289 289
304 301 301 293 298 303 304 310 310 311 308 309 312 312 309 306 310 311 312 310 306 304 301 299 297 296 296 295 293 292 292 291 291 291 290 290 291 291 290 289 288 289 289 288
308 307 302 301 298 308 306 310 310 309 309 311 312 312 312 312 311 309 308 306 304 302 298 297 296 296 294 293 292 290 290 291 290 290 289 290 291 291 290 288 288 288 288 287
309 306 306 306 307 306 308 310 312 311 310 311 312 312 313 311 309 308 307 301 302 299 297 296 295 294 292 291 290 290 290 290 289 289 289 289 290 290 289 287 287 287 287 286
307 306 304 307 308 307 309 310 311 311 312 311 312 312 313 312 309 308 302 306 299 296 296 295 294 292 291 290 290 290 290 289 289 289 289 289 289 289 289 287 286 286 286 286
307 307 307 305 307 310 311 312 312 312 311 311 312 312 313 311 307 306 305 297 297 296 295 293 292 290 290 290 290 289 289 289 289 289 289 288 289 289 289 287 286 286 285 285
308 307 306 307 310 309 310 311 312 313 313 313 312 311 310 307 306 303 300 297 295 294 293 291 290 290 290 290 289 289 289 289 289 289 288 288 288 288 288 287 286 286 285 284

GFSCGP_850_thetae_027.txt.gz
Theta_e
315 317 317 316 313 312 314 315 315 314 312 319 319 320 319 318 320 321 321 322 323 324 324 325 325 325 324 324 325 327 327 325 322 323 323 321 317 318 319 313 313 313 313 312
317 317 315 316 315 315 315 317 316 315 314 319 319 320 320 318 318 319 320 321 323 324 326 326 326 325 325 325 326 327 326 324 322 320 319 318 317 313 313 312 312 312 312 310
317 316 315 317 317 318 317 318 317 318 317 317 319 320 320 319 319 319 319 321 324 326 327 327 327 326 325 324 323 323 323 322 317 316 317 314 313 313 313 312 312 311 311 309
318 316 316 316 318 316 320 317 315 316 318 321 315 320 319 321 321 321 321 323 324 327 326 324 323 319 317 317 315 315 315 314 315 315 313 313 314 313 313 313 312 310 309 306
318 317 316 318 316 316 319 316 317 315 317 318 318 321 319 321 323 323 321 319 321 324 321 319 316 315 314 314 314 314 314 314 314 314 314 314 314 313 312 311 309 305 302 300
316 315 316 317 315 315 316 319 318 318 319 320 318 319 319 323 324 322 319 318 318 320 317 315 315 314 315 315 315 315 314 314 315 315 314 313 312 311 309 305 302 301 300 300
317 317 315 316 319 316 318 320 323 325 325 323 317 319 320 317 318 322 320 318 317 317 315 315 315 314 315 315 315 315 315 315 313 312 311 309 307 303 301 300 300 302 302 301
318 319 315 315 317 318 317 320 325 323 325 323 317 322 322 316 315 320 319 318 316 316 316 315 315 315 315 315 315 315 314 311 308 306 304 301 298 299 301 302 302 301 298 297
319 318 315 314 315 317 317 318 316 318 313 319 318 318 317 315 315 317 317 317 316 316 316 315 315 315 315 315 314 311 309 305 303 301 299 300 301 302 302 300 297 295 294 295
317 318 314 315 315 315 317 315 319 317 318 317 316 318 320 318 317 317 317 317 316 316 316 316 316 315 313 311 310 307 304 302 301 300 300 300 300 300 298 296 295 294 293 293
313 317 317 315 316 318 318 317 314 315 315 316 316 316 316 318 318 318 317 316 317 316 316 315 314 311 310 308 305 304 302 301 300 300 300 299 298 297 296 294 293 292 292 292
314 315 319 316 314 314 315 316 315 317 314 313 314 317 311 313 316 316 316 315 314 314 314 313 311 310 308 305 304 303 302 300 300 300 299 298 296 295 293 292 293 293 293 291
314 316 318 318 315 314 317 315 312 311 312 315 322 316 311 312 313 314 314 313 313 313 311 310 309 308 305 304 303 302 302 301 300 299 297 296 295 293 293 293 293 292 291 291
313 313 316 318 315 314 314 315 312 314 316 314 316 314 312 315 313 312 312 313 312 311 310 309 308 305 304 303 303 303 301 300 298 296 295 295 294 294 293 293 292 290 290 290
313 316 313 312 312 312 311 312 313 314 313 317 313 312 312 312 315 312 310 310 310 309 309 308 306 304 303 303 304 301 300 298 296 295 295 294 294 294 293 292 290 290 290 290
311 314 311 313 311 311 313 311 311 312 312 312 311 313 311 310 310 310 310 310 309 309 309 308 305 304 303 304 301 300 298 296 295 295 294 293 293 293 292 290 290 290 290 290
311 311 310 312 307 308 311 311 312 311 310 313 314 314 311 311 310 311 310 309 309 310 309 307 304 303 303 301 299 297 296 296 295 294 293 293 293 292 291 290 290 290 289 290
308 306 304 310 305 312 311 310 310 311 311 310 310 310 311 311 311 311 311 311 310 310 309 307 303 302 301 299 297 296 296 295 293 293 293 292 291 290 290 290 290 290 289 290
306 306 306 313 310 308 309 306 310 312 313 311 310 310 309 309 310 311 311 311 311 311 310 306 303 301 299 297 296 296 295 293 292 292 291 291 290 290 290 290 290 289 289 289
305 304 311 305 310 311 309 306 310 310 315 310 310 310 309 309 315 313 311 312 311 310 307 303 301 298 297 296 296 295 293 292 291 291 291 290 290 290 290 290 290 288 288 289
311 307 310 302 312 309 306 307 309 313 314 307 311 311 309 311 313 311 312 311 310 308 303 301 297 298 296 296 295 293 291 290 290 290 290 289 289 289 290 290 289 288 288 288
312 312 311 304 309 314 305 310 314 312 310 309 311 312 311 311 311 311 311 310 308 304 301 299 299 298 296 295 293 291 290 290 290 290 289 289 289 289 289 289 289 288 287 287
312 311 313 310 313 307 308 311 312 311 310 309 311 311 311 310 310 309 308 306 303 299 303 299 298 295 294 292 290 290 290 289 289 289 289 289 289 289 289 289 289 288 286 287
308 306 310 309 310 307 308 309 310 310 310 310 311 311 311 311 309 307 306 302 302 304 298 298 296 294 292 290 290 290 289 289 289 289 289 289 289 288 288 289 289 288 286 286
309 307 308 308 308 309 310 310 310 311 311 311 311 311 311 311 308 306 300 303 300 297 297 295 294 291 290 290 290 290 289 289 289 289 289 288 288 288 288 288 288 287 286 286
307 310 311 313 310 309 309 310 312 312 312 313 312 312 311 310 307 301 301 301 299 297 295 293 291 290 290 290 290 290 289 289 289 289 288 287 288 287 288 288 288 287 286 286

GFSCGP_850_thetae_030.txt.gz
Theta_e
318 320 319 318 318 317 318 319 319 318 320 320 320 322 322 324 326 326 326 326 326 326 326 323 323 323 327 327 326 326 326 326 324 322 323 322 319 318 317 317 314 313 313 312
320 320 318 319 318 319 319 319 320 318 319 323 323 324 322 323 326 327 326 326 326 327 327 326 326 328 327 327 327 326 326 326 323 321 321 319 317 317 315 314 313 312 311 310
320 320 319 320 320 320 321 321 320 321 321 322 323 325 324 322 323 324 325 327 327 328 328 328 329 329 328 329 328 328 327 325 320 318 317 317 317 314 313 312 311 311 310 309
321 319 320 321 321 321 321 320 320 321 322 321 322 323 326 325 324 325 324 325 328 328 329 329 329 329 328 328 327 327 324 320 317 316 317 317 316 316 314 312 311 309 308 304
321 320 321 321 321 320 322 319 321 321 322 322 322 322 325 326 326 327 327 328 329 328 327 326 325 323 321 319 320 323 320 317 314 314 314 315 314 313 311 310 308 307 306 304
320 319 321 321 320 320 320 322 322 322 323 323 322 322 321 326 326 328 327 326 327 325 323 321 318 317 317 317 318 316 315 314 314 313 314 313 313 311 309 307 306 304 303 303
321 321 320 320 322 321 322 323 322 324 324 322 322 322 320 322 323 326 326 323 324 320 319 317 317 316 316 316 316 316 315 314 314 313 311 310 308 305 304 303 303 303 303 302
321 322 320 319 322 321 322 322 321 318 321 321 322 323 323 321 320 324 325 322 322 319 318 317 317 316 316 316 316 315 315 313 312 309 305 301 299 304 303 304 303 301 300 300
321 320 319 318 320 320 321 321 322 324 319 324 322 323 322 320 320 322 324 321 320 319 318 318 317 317 316 315 315 314 312 310 306 302 302 299 301 300 302 300 298 299 299 298
321 321 319 319 319 319 321 320 322 323 323 319 318 319 319 322 321 322 324 321 320 319 319 318 317 316 316 314 314 312 307 304 302 301 299 302 300 299 298 297 298 297 296 296
320 321 321 319 321 322 321 321 319 320 321 318 317 317 321 321 322 322 322 321 320 319 319 318 317 315 314 312 310 307 304 302 304 304 300 299 298 297 297 297 296 296 295 295
319 322 323 321 318 318 320 321 319 319 318 320 320 318 316 319 321 321 321 321 321 320 319 317 315 314 311 309 307 305 302 303 302 300 299 298 297 297 297 296 295 295 295 294
320 322 323 321 319 318 320 320 318 318 319 319 326 317 316 318 319 320 320 321 320 318 317 316 314 312 310 307 306 304 303 303 301 299 298 298 298 297 296 296 295 295 294 293
315 321 322 323 320 319 319 319 318 318 319 317 318 315 316 317 318 318 319 319 318 316 315 314 313 311 309 306 305 303 306 302 300 298 297 297 297 296 296 296 295 294 293 293
319 321 319 317 316 316 317 318 318 318 318 318 315 316 315 315 316 316 318 318 318 315 314 313 312 310 307 306 305 304 302 300 299 297 297 297 296 296 296 295 294 293 293 293
317 321 317 318 316 315 317 317 317 318 318 318 317 317 317 315 315 315 316 316 316 315 313 312 311 309 307 305 305 305 300 299 297 296 296 295 295 295 295 294 293 293 293 293
319 319 318 318 313 314 319 317 317 316 317 317 317 317 316 315 315 315 316 315 315 314 313 311 309 308 306 304 303 301 298 297 296 296 295 294 294 294 294 293 292 292 292 293
317 316 315 319 312 325 315 313 314 316 316 316 315 315 314 315 315 315 315 315 314 314 312 311 309 306 305 302 300 299 297 296 296 294 294 294 294 293 293 292 292 292 292 292
313 315 315 324 316 314 312 311 312 314 314 315 315 315 314 314 314 315 313 313 314 313 312 311 308 305 301 301 300 297 296 296 294 294 294 294 293 293 292 292 292 292 291 291
311 312 318 315 328 329 315 312 312 314 315 312 314 315 314 314 317 314 312 311 312 312 311 308 304 303 301 298 296 299 296 295 294 293 293 293 292 292 292 292 292 291 290 290
318 316 322 317 323 317 313 310 313 315 315 314 314 315 314 316 314 314 311 312 312 311 307 303 303 299 297 298 299 296 294 293 293 291 291 292 292 291 291 291 291 291 290 290
319 321 321 315 323 323 310 313 317 316 314 313 313 315 315 314 313 311 311 311 309 305 301 299 297 300 301 298 295 294 292 292 290 290 291 291 291 291 290 291 291 290 290 289
318 318 319 317 318 313 311 314 314 313 313 313 313 313 313 313 312 310 309 307 303 299 297 298 299 301 298 295 293 290 291 290 290 289 290 290 291 290 290 291 290 290 290 289
314 311 315 314 314 313 312 312 311 311 311 312 312 312 312 312 312 309 305 302 299 297 299 301 299 295 294 292 290 290 290 290 289 289 290 291 291 291 290 290 289 290 289 289
314 312 315 315 314 312 312 311 311 312 313 313 313 312 312 312 311 306 302 299 298 302 300 296 295 293 291 290 290 290 290 290 289 289 289 290 290 290 290 289 289 289 289 288
311 314 316 317 312 312 313 312 312 312 313 312 312 311 309 310 306 301 299 299 299 298 296 294 294 294 291 290 290 290 290 290 289 289 289 290 289 289 289 289 289 288 288 287